Tyler, TX

1:27 AM CDT on May 22, 2018 (GMT -0500)
Tyler Pounds

Weather History for KTYR - February, 2012

Change the Weather History Date:

Friday, February 24, 2012

  Actual Average Record
Temperature  
Mean Temperature 49 °F 53 °F  
Max Temperature 60 °F 63 °F 85 °F (1918)
Min Temperature 37 °F 43 °F 19 °F (1965)
Degree Days  
Heating Degree Days 16 13  
Month to date heating degree days 311 364  
Since 1 July heating degree days 1532 1842  
Cooling Degree Days 0 0  
Month to date cooling degree days 16 0  
Year to date cooling degree days 18 4  
Moisture  
Dew Point 22 °F    
Average Humidity 39    
Maximum Humidity 60    
Minimum Humidity 18    
Precipitation  
Precipitation 0.00 in 0.13 in 1.80 in (1902)
Month to date precipitation 2.86 3.21  
Year to date precipitation 6.11 6.27  
Snow  
Snow 0.00 in - - ()
Month to date snowfall 0.0  
Since 1 July snowfall 0.0  
Snow Depth 0.00 in    
Sea Level Pressure  
Sea Level Pressure 30.18 in    
Wind  
Wind Speed 11 mph (North)    
Max Wind Speed 25 mph    
Max Gust Speed 32 mph    
Visibility 10 miles    
Events      
T = Trace of Precipitation, MM = Missing Value Source: NWS Daily Summary

Daily Weather History Graph

Daily Weather History Graph

Search for Another Location

Airport or City:

Astronomy

Feb. 24, 2012 Rise Set
Actual Time 6:55 AM CST 6:14 PM CST
Civil Twilight 6:30 AM CST 6:39 PM CST
Nautical Twilight 6:02 AM CST 7:08 PM CST
Astronomical Twilight 5:33 AM CST 7:36 PM CST
Moon 8:03 AM CST (2/24) 9:04 PM CST (2/24)
Length of Visible Light 12h 08m
Length of Day
11h 19m
Waxing Crescent, 8% of the Moon is Illuminated
Feb 24
Waxing Crescent
Feb 29
First Quarter
Mar 8
Full
Mar 14
Last Quarter
Mar 22
New

Hourly Weather History & Observations

Time (CST) Temp. Windchill Dew Point Humidity Pressure Visibility Wind Dir Wind Speed Gust Speed Precip Events Conditions
12:53 AM 55.9 °F - 34.0 °F 44% 29.83 in 10.0 mi North 16.1 mph 28.8 mph N/A   Clear
1:53 AM 53.1 °F - 32.0 °F 45% 29.87 in 10.0 mi North 12.7 mph 24.2 mph N/A   Clear
2:53 AM 52.0 °F - 28.9 °F 41% 29.92 in 10.0 mi North 17.3 mph 29.9 mph N/A   Clear
3:53 AM 51.1 °F - 28.9 °F 43% 29.97 in 10.0 mi North 10.4 mph - N/A   Clear
4:53 AM 50.0 °F - 26.1 °F 39% 30.01 in 10.0 mi North 11.5 mph - N/A   Clear
5:53 AM 48.9 °F - 25.0 °F 39% 30.06 in 10.0 mi North 11.5 mph - N/A   Clear
6:53 AM 48.0 °F - 24.1 °F 39% 30.12 in 10.0 mi North 11.5 mph - N/A   Clear
7:53 AM 48.0 °F - 21.9 °F 36% 30.16 in 10.0 mi North 20.7 mph 25.3 mph N/A   Clear
8:53 AM 48.9 °F - 23.0 °F 36% 30.20 in 10.0 mi North 11.5 mph - N/A   Clear
9:53 AM 50.0 °F - 19.0 °F 29% 30.23 in 10.0 mi North 16.1 mph 28.8 mph N/A   Clear
10:53 AM 53.1 °F - 18.0 °F 25% 30.23 in 10.0 mi NNE 17.3 mph 24.2 mph N/A   Clear
11:53 AM 55.9 °F - 18.0 °F 23% 30.23 in 10.0 mi NNW 17.3 mph 24.2 mph N/A   Clear
12:53 PM 57.0 °F - 17.1 °F 21% 30.23 in 10.0 mi North 16.1 mph 24.2 mph N/A   Clear
1:53 PM 57.9 °F - 18.0 °F 21% 30.22 in 10.0 mi North 12.7 mph 23.0 mph N/A   Clear
2:53 PM 59.0 °F - 16.0 °F 19% 30.22 in 10.0 mi North 13.8 mph 21.9 mph N/A   Clear
3:53 PM 59.0 °F - 17.1 °F 20% 30.22 in 10.0 mi North 15.0 mph 19.6 mph N/A   Clear
4:53 PM 57.0 °F - 17.1 °F 21% 30.24 in 10.0 mi North 12.7 mph - N/A   Clear
5:53 PM 55.0 °F - 17.1 °F 23% 30.26 in 10.0 mi North 9.2 mph - N/A   Clear
6:53 PM 52.0 °F - 18.0 °F 26% 30.29 in 10.0 mi Calm Calm - N/A   Clear
7:53 PM 45.0 °F - 21.9 °F 40% 30.31 in 10.0 mi Calm Calm - N/A   Clear
8:53 PM 45.0 °F - 19.9 °F 37% 30.32 in 10.0 mi Calm Calm - N/A   Clear
9:53 PM 44.1 °F - 21.9 °F 42% 30.35 in 10.0 mi Calm Calm - N/A   Clear
10:53 PM 41.0 °F - 28.0 °F 60% 30.36 in 10.0 mi Calm Calm - N/A   Clear
11:53 PM 37.9 °F 35.5 °F 25.0 °F 60% 30.39 in 10.0 mi WNW 3.5 mph - N/A   Clear